Theta_e
319 319 319 319 320 320 319 319 319 319 318 317 317 316 316 316 318 320 320 320 319 322 326 326 327 333 331 332 335 334 330 328 324 328 329 334 340 342 346 348 345 345 342
317 317 318 318 318 318 317 317 317 316 315 315 314 313 312 311 313 313 313 313 313 314 317 318 321 327 330 332 333 333 332 330 324 324 332 332 336 340 344 347 344 342 344
316 316 317 316 316 316 316 316 315 313 312 311 309 308 308 308 308 309 308 307 309 310 310 312 317 321 324 327 330 331 330 331 332 327 324 330 332 334 337 343 345 345 343
315 315 314 315 315 314 314 313 312 311 309 310 310 309 309 308 308 308 307 308 307 308 309 313 313 313 317 322 325 327 329 328 328 328 324 326 329 333 334 333 337 342 339
313 313 313 314 314 313 312 311 311 311 310 310 309 309 309 307 307 307 308 307 306 305 308 308 309 313 312 311 311 319 326 326 325 321 321 320 325 326 326 330 332 336 342
312 312 312 312 311 311 312 310 310 309 309 309 308 308 306 307 304 303 305 306 305 305 303 306 308 309 309 307 308 310 313 319 321 318 320 318 323 327 327 331 333 333 331
310 311 311 310 309 309 310 310 310 310 311 309 309 308 306 307 302 300 302 304 304 303 304 305 305 306 308 308 308 308 310 309 312 322 319 320 322 329 330 331 332 335 334
308 308 309 309 309 309 309 309 311 309 309 308 306 304 306 307 302 299 300 304 304 304 303 305 304 306 308 308 309 311 314 315 324 321 325 329 331 332 331 332 334 338 340
305 305 307 308 307 307 306 307 308 307 306 304 304 305 307 307 302 298 299 303 303 303 305 307 306 306 303 299 308 309 310 311 315 311 311 309 308 307 312 333 328 332 327
300 301 304 305 305 305 305 307 306 308 305 305 306 309 306 308 303 299 300 306 304 304 307 305 302 303 300 298 304 306 304 307 312 323 318 316 310 320 307 330 330 325 323
297 299 301 303 304 306 307 306 307 306 307 307 307 309 309 308 311 301 298 308 308 305 305 305 307 301 297 297 298 306 306 311 313 318 320 324 326 329 330 332 328 328 328
296 296 298 301 304 304 305 305 306 307 307 306 305 306 308 310 307 305 299 299 307 308 305 306 308 301 298 299 297 300 298 302 312 314 320 323 324 325 328 331 334 330 338
293 294 297 301 304 304 304 303 302 304 305 305 305 305 303 305 308 302 299 299 299 300 306 304 301 299 297 297 295 297 297 309 312 315 318 321 326 326 331 332 334 335 335
290 292 295 298 299 303 303 303 302 302 302 304 304 303 300 299 301 302 302 304 303 305 306 306 304 303 301 305 306 300 309 316 317 318 315 325 329 330 329 333 331 330 324
289 290 291 294 296 299 303 302 302 305 302 300 302 299 296 294 296 294 293 296 302 302 297 300 303 307 307 310 314 316 317 318 316 316 318 318 320 323 325 330 327 324 320
288 288 288 292 294 295 296 299 298 296 295 293 294 294 294 293 292 294 295 294 291 291 303 309 308 307 308 310 314 314 314 314 318 320 318 319 318 319 320 323 324 322 319
292 288 287 290 290 292 290 292 292 299 297 296 293 293 292 291 292 294 295 297 298 299 309 309 309 307 309 313 313 313 314 317 317 318 316 316 314 313 315 316 319 318 318
294 291 289 288 288 287 289 289 288 292 294 298 298 293 292 291 292 293 294 303 311 314 311 311 312 311 310 311 313 315 314 316 314 315 313 315 315 312 311 315 316 319 320
295 293 293 291 287 287 288 289 288 288 290 292 297 295 292 291 291 292 294 298 303 309 313 314 313 316 317 313 313 315 315 310 311 316 316 315 316 316 318 317 319 309 313
295 289 292 295 294 293 289 287 287 287 286 286 288 290 289 291 290 291 295 296 302 306 311 314 315 318 317 318 318 319 319 316 314 316 318 321 322 321 319 321 321 321 323
294 294 290 294 294 294 293 292 289 289 287 286 286 287 285 290 288 288 290 292 295 299 304 307 315 316 317 317 318 319 319 321 321 323 322 320 323 323 325 324 323 324 324
293 293 293 293 293 293 293 294 293 291 290 289 286 287 286 290 288 288 288 288 292 297 300 305 306 309 310 313 315 317 320 320 322 324 325 324 323 323 323 325 324 323 321
292 292 291 291 291 290 292 292 292 292 292 291 289 286 287 287 288 286 286 286 290 292 295 299 303 304 306 311 306 307 303 303 316 325 323 321 323 323 324 322 326 326 324
291 291 289 289 289 289 289 290 291 288 291 291 290 289 287 288 287 286 286 286 286 290 293 293 297 298 301 303 304 302 297 294 306 307 319 321 321 319 321 322 322 325 325
291 290 289 287 287 287 287 287 288 289 290 290 289 289 288 288 287 287 287 287 287 287 288 290 292 293 295 301 298 295 289 286 293 289 306 322 322 322 321 322 321 322 323
291 290 288 287 284 285 285 285 286 287 287 288 289 289 288 288 287 287 287 287 287 287 288 288 290 290 292 297 293 287 286 285 288 286 295 320 321 320 320 319 318 322 323
Wind_Speed
7 7 8 8 8 8 9 10 11 12 14 15 16 16 17 17 15 14 14 15 17 17 17 19 19 19 15 15 14 14 15 14 14 9 10 9 11 11 8 7 9 11 10
8 8 8 8 9 9 10 12 12 13 13 14 15 15 16 17 14 15 15 15 16 19 18 19 20 15 20 17 15 19 14 12 13 16 11 9 10 13 12 10 8 9 9
9 8 8 9 9 10 11 12 13 14 14 15 15 15 15 15 15 17 15 15 16 17 17 20 20 20 19 15 16 16 17 13 12 11 8 8 9 10 12 10 10 11 10
9 9 9 9 10 11 12 12 13 14 15 15 14 15 14 18 17 17 16 16 19 18 18 19 19 19 20 19 17 19 17 17 14 12 11 10 11 11 11 10 10 9 10
9 10 10 10 11 11 11 11 13 13 15 16 18 17 16 14 13 15 15 17 17 17 19 19 19 20 25 23 13 15 18 16 15 14 11 9 12 10 13 9 11 9 9
10 11 11 11 11 12 9 12 14 14 14 14 17 17 14 14 13 14 15 16 17 17 17 19 19 25 23 26 26 24 15 16 18 13 12 13 11 10 11 9 10 9 8
11 11 11 11 12 12 13 13 13 12 16 16 15 18 16 20 18 15 14 14 16 17 18 18 18 16 21 17 19 18 21 21 21 14 15 13 8 10 13 11 12 12 11
12 12 13 12 13 14 15 16 15 14 15 13 15 16 19 16 18 14 15 15 16 18 19 21 18 20 21 21 18 16 16 15 18 15 16 14 12 12 11 10 12 13 11
12 12 14 14 14 15 15 14 15 13 12 14 14 18 18 17 15 10 12 14 15 17 18 20 19 19 23 19 20 20 18 17 17 21 16 13 14 17 13 9 10 11 7
12 14 15 15 15 15 14 15 12 14 13 13 16 16 18 19 20 17 16 12 14 13 15 16 20 21 22 19 17 19 15 16 17 15 8 13 15 14 14 14 10 10 7
14 14 14 14 14 14 12 13 13 13 16 14 14 13 14 17 17 17 18 16 13 12 13 13 14 23 24 28 29 19 16 16 17 7 8 9 11 12 13 11 10 10 9
14 14 14 14 11 11 14 12 14 14 14 11 12 12 11 16 22 16 17 21 22 13 14 13 14 12 14 16 13 21 16 13 11 8 9 10 11 12 12 11 12 12 8
13 13 13 14 12 12 11 13 10 12 10 9 9 10 12 14 14 22 20 21 18 12 10 15 21 21 16 11 15 15 16 12 14 12 10 11 11 12 11 10 10 12 7
13 13 13 13 14 12 9 9 9 9 9 11 11 9 13 14 14 14 15 13 13 10 13 13 13 13 9 9 10 11 12 12 12 11 10 11 9 9 9 9 9 8 8
11 11 13 11 13 12 11 10 10 10 7 9 7 9 12 14 17 25 13 8 8 10 13 10 8 5 6 8 7 8 8 9 9 8 9 7 7 7 6 7 7 9 8
10 10 9 10 10 11 12 13 11 13 12 9 2 4 14 23 32 32 25 12 12 15 6 8 7 3 4 7 8 6 6 8 8 9 9 6 5 6 7 7 9 9 11
8 10 8 10 10 11 11 11 15 13 14 15 5 16 28 29 29 31 35 21 14 7 8 10 9 10 7 8 9 8 7 5 6 9 8 9 8 6 10 7 11 12 10
9 6 7 9 9 10 9 10 10 12 14 14 11 14 26 29 26 24 25 17 17 4 9 7 8 5 9 9 8 8 7 6 7 10 8 6 7 6 6 9 8 9 8
8 9 8 3 6 9 8 10 9 12 13 14 15 16 23 30 26 25 25 13 13 16 8 7 3 4 7 7 5 5 6 5 2 5 7 7 7 6 5 7 5 8 10
9 5 9 7 7 7 7 9 10 10 11 11 13 14 15 16 17 16 15 15 16 15 17 16 17 2 6 9 5 5 6 4 4 1 3 1 4 6 7 6 6 7 8
9 9 9 9 10 9 8 7 7 10 9 9 11 13 22 8 12 13 14 15 15 15 16 14 16 17 15 7 4 6 9 6 5 4 6 7 6 4 5 6 7 9 9
10 11 10 10 10 11 12 11 10 9 10 9 9 12 18 13 11 12 14 14 14 16 13 15 13 15 16 17 16 4 3 4 7 4 4 2 9 7 5 4 7 7 7
10 11 11 11 12 12 12 12 12 12 12 11 11 10 12 12 13 12 12 13 13 14 15 15 15 15 15 16 16 15 15 14 15 3 3 4 3 7 11 10 10 10 9
11 12 12 12 12 13 13 13 13 13 13 13 13 12 10 11 12 14 13 12 12 13 14 14 15 20 17 16 15 16 16 17 14 15 14 4 6 6 6 7 6 16 11
11 11 11 12 12 12 13 13 14 14 14 13 13 12 13 12 12 12 13 12 12 12 14 14 14 19 22 21 24 27 24 25 20 19 16 9 8 5 6 10 8 8 13
10 11 10 10 10 11 12 13 14 14 14 13 13 13 13 13 14 14 13 14 13 13 15 11 12 22 23 17 23 20 21 24 22 24 16 10 2 2 2 8 1 11 11
Wind_Direction
347 343 333 326 323 320 316 316 314 312 307 305 305 306 300 294 290 290 292 291 283 285 280 276 279 277 261 257 256 242 242 251 260 254 262 282 291 283 271 239 236 240 234
335 331 322 318 320 318 315 313 311 307 304 301 303 302 301 302 304 305 304 295 296 293 281 279 288 278 267 255 257 267 255 240 244 254 243 251 270 280 262 242 249 251 237
328 322 319 318 316 316 312 313 314 314 312 310 302 294 290 289 292 289 288 288 286 283 282 288 289 280 277 275 254 256 259 251 249 248 243 239 247 253 262 252 238 236 256
321 316 312 314 319 315 312 319 318 310 297 299 295 295 293 289 283 278 281 280 283 278 279 279 269 278 284 287 272 262 254 254 261 244 247 250 240 242 251 239 239 230 233
314 307 307 314 313 307 310 303 312 301 305 302 300 297 292 286 274 278 277 278 277 278 281 275 277 274 279 281 287 294 272 248 241 253 224 223 240 238 246 249 240 233 233
308 301 310 308 312 306 307 319 305 297 297 293 299 293 301 286 285 270 261 277 273 274 277 276 276 273 268 266 267 270 259 272 247 234 254 243 247 246 262 239 246 231 227
300 304 306 310 305 308 321 305 299 298 304 305 301 307 297 293 283 253 244 269 269 267 270 274 273 268 268 263 274 259 267 252 239 248 238 246 253 242 241 250 239 232 227
305 312 309 314 316 317 317 311 308 316 309 309 309 295 290 288 276 259 248 266 268 266 266 267 261 264 264 265 265 268 265 290 252 234 240 234 238 255 263 257 254 245 235
311 316 313 320 316 316 310 309 313 312 317 298 292 291 290 294 294 266 257 274 263 263 262 262 259 260 262 264 263 258 261 264 282 240 222 232 227 244 258 253 250 230 213
328 317 313 313 309 308 308 309 307 308 302 301 297 285 290 288 285 268 255 272 263 261 264 262 256 248 258 256 255 261 248 249 264 217 222 238 237 235 220 237 244 236 193
319 310 308 309 303 304 304 310 316 307 304 301 290 297 292 281 272 260 248 259 257 255 253 256 251 241 237 244 239 236 233 240 259 272 261 245 245 240 227 216 206 232 199
324 318 313 304 311 316 311 325 311 317 299 294 316 315 314 313 305 291 259 246 257 257 254 260 267 267 234 258 242 223 210 217 258 272 264 254 246 234 226 208 197 204 226
325 320 314 310 322 321 321 317 322 310 317 322 315 318 327 321 307 306 299 288 258 250 249 248 253 255 251 226 225 224 210 219 236 249 250 250 233 224 217 214 207 209 205
335 329 327 328 333 325 325 322 323 316 320 318 318 334 327 321 317 315 302 291 304 283 277 268 257 249 241 251 215 210 218 223 232 237 249 244 227 207 209 197 190 175 145
344 340 338 331 338 326 328 330 320 313 307 319 340 343 336 326 319 317 320 299 286 282 307 285 254 207 211 208 219 201 204 220 225 239 240 215 193 196 194 178 145 145 129
356 349 338 331 344 338 338 333 326 300 308 11 345 332 343 338 337 340 346 337 293 282 301 348 20 209 194 185 196 208 216 195 185 165 193 150 155 167 174 156 147 137 134
1 359 349 345 353 343 347 348 334 339 346 331 332 20 357 347 342 348 341 341 306 332 2 356 25 25 38 81 96 85 74 98 76 103 89 99 92 86 114 104 131 128 139
4 38 8 0 0 342 353 350 340 342 346 345 354 27 358 343 345 349 352 343 353 54 70 12 21 36 58 55 71 81 75 56 85 96 90 93 100 95 81 111 118 113 128
4 12 360 29 12 5 350 356 359 355 355 348 345 4 355 350 346 0 9 15 346 355 18 90 83 28 83 95 58 57 108 117 104 118 130 123 129 143 126 127 125 124 122
2 93 329 13 9 24 14 7 1 8 360 359 356 2 348 347 2 355 0 360 354 1 11 355 349 36 120 105 91 75 92 132 124 95 282 200 170 147 151 163 164 155 161
356 5 346 13 359 14 10 27 13 5 9 3 360 359 340 10 360 358 355 359 355 357 350 356 354 5 355 80 69 130 145 142 150 194 152 145 157 154 163 160 168 164 160
6 8 5 14 2 11 355 6 18 26 14 15 6 358 358 9 10 5 0 355 352 348 349 355 357 358 6 2 7 25 98 85 147 156 103 75 139 141 139 117 119 106 120
12 13 11 13 9 4 5 10 16 8 5 28 18 12 4 5 5 6 360 354 347 351 351 353 1 359 8 6 12 19 14 359 335 93 105 110 85 141 145 154 144 140 136
21 13 18 11 15 4 9 6 8 10 4 12 18 15 14 6 7 3 359 353 350 350 356 357 355 355 2 2 9 6 13 358 349 347 340 25 96 48 81 99 111 132 133
22 18 21 13 10 6 3 5 4 8 360 11 9 12 10 5 6 6 357 354 352 352 358 355 354 354 354 358 8 359 360 356 358 350 341 351 67 91 119 144 158 119 129
26 29 19 18 11 7 4 360 358 3 354 5 5 3 5 6 6 356 358 353 354 352 352 347 345 2 352 357 2 350 359 353 349 346 334 318 145 118 94 108 123 141 157